TimeMST,TemperatureF,Dew PointF,Humidity,Sea Level PressureIn,VisibilityMPH,Wind Direction,Wind SpeedMPH,Gust SpeedMPH,PrecipitationIn,Events,Conditions,WindDirDegrees,DateUTC
12:53 AM,35.1,28.0,76,30.07,10.0,WNW,21.9,28.8,N/A,,Overcast,300,2014-01-14 07:53:00
1:53 AM,34.0,27.0,75,30.12,10.0,WNW,18.4,-,N/A,,Clear,300,2014-01-14 08:53:00
2:53 AM,33.1,26.1,75,30.17,10.0,NW,9.2,-,N/A,,Clear,320,2014-01-14 09:53:00
3:53 AM,30.9,25.0,79,30.20,10.0,WNW,11.5,-,N/A,,Clear,300,2014-01-14 10:53:00
4:53 AM,30.0,24.1,79,30.24,10.0,WNW,13.8,-,N/A,,Clear,300,2014-01-14 11:53:00
5:53 AM,28.9,23.0,78,30.27,10.0,WNW,11.5,-,N/A,,Clear,300,2014-01-14 12:53:00
6:53 AM,32.0,23.0,69,30.28,10.0,WNW,19.6,28.8,N/A,,Overcast,290,2014-01-14 13:53:00
7:53 AM,30.0,25.0,82,30.30,10.0,NW,19.6,28.8,0.00,,Scattered Clouds,310,2014-01-14 14:53:00
8:53 AM,32.0,24.1,73,30.35,10.0,NW,16.1,25.3,N/A,,Unknown,310,2014-01-14 15:53:00
9:53 AM,33.1,23.0,66,30.38,10.0,NW,25.3,34.5,N/A,,Overcast,310,2014-01-14 16:53:00
10:03 AM,30.2,24.8,80,30.29,1.8,NW,19.6,32.2,0.00,Snow,Light Snow,310,2014-01-14 17:03:00
10:12 AM,30.2,24.8,80,30.29,3.0,NW,16.1,25.3,0.00,Snow,Light Snow,310,2014-01-14 17:12:00
10:53 AM,33.1,24.1,70,30.39,10.0,NW,25.3,31.1,0.00,,Mostly Cloudy,320,2014-01-14 17:53:00
11:53 AM,35.1,23.0,61,30.37,10.0,NW,26.5,38.0,N/A,,Clear,320,2014-01-14 18:53:00
12:53 PM,35.1,23.0,61,30.38,10.0,NW,25.3,36.8,N/A,,Clear,310,2014-01-14 19:53:00
1:53 PM,35.1,21.9,59,30.39,10.0,NW,24.2,33.4,N/A,,Clear,310,2014-01-14 20:53:00
2:53 PM,34.0,21.0,59,30.40,10.0,NW,27.6,40.3,N/A,,Clear,310,2014-01-14 21:53:00
3:53 PM,33.1,21.9,64,30.43,10.0,NW,21.9,31.1,N/A,,Overcast,310,2014-01-14 22:53:00
4:53 PM,32.0,21.0,64,30.43,10.0,WNW,20.7,31.1,N/A,,Overcast,300,2014-01-14 23:53:00
5:53 PM,32.0,21.9,66,30.43,10.0,WNW,18.4,26.5,N/A,,Overcast,300,2014-01-15 00:53:00
6:53 PM,32.0,21.0,64,30.42,10.0,WNW,17.3,24.2,N/A,,Mostly Cloudy,290,2014-01-15 01:53:00
7:53 PM,32.0,21.0,64,30.41,10.0,WNW,17.3,-,N/A,,Overcast,290,2014-01-15 02:53:00
8:53 PM,30.9,21.9,69,30.39,10.0,West,10.4,-,N/A,,Overcast,280,2014-01-15 03:53:00
9:53 PM,32.0,21.9,66,30.37,10.0,WNW,10.4,-,N/A,,Overcast,290,2014-01-15 04:53:00
10:53 PM,32.0,21.0,64,30.34,10.0,WNW,5.8,-,N/A,,Unknown,300,2014-01-15 05:53:00
11:53 PM,32.0,21.9,66,30.29,10.0,West,8.1,-,N/A,,Overcast,280,2014-01-15 06:53:00